Flag for Spain Weather past 2 weeks in Huelva, Spain

Now
66 °F

Partly sunny.


Feels Like: 66 °F
Forecast: 56 / 73 °F
Wind: 12 mph from South

Location: Rota Airport


UV Index: 5 (Moderate)

Visibility: 6 mi


Pressure: 30.01 "Hg

Humidity: 78%

Dew point: 59 °F

Location of HuelvaLocation

Historic Weather in Huelva

°F

Huelva temperature yesterday

Maximum temperature yesterday: 75 °F (at 1:00 PM)
Minimum temperature yesterday: 55 °F (at 4:00 AM)
Average temperature yesterday: 64 °F

Past Weeks' High & Low Weather Summary

 TemperatureHumidityPressure
High84 °F (Apr 8, 3:00 PM)100% (Apr 6, 7:00 AM)30.24 "Hg (Apr 6, 7:00 AM)
Low50 °F (Apr 4, 9:00 AM)29% (Apr 8, 3:00 PM)29.77 "Hg (Apr 3, 12:00 PM)
Average65 °F69%30.03 "Hg
* Reported Apr 3 12:00 Noon — Apr 18 12:00 Noon, Huelva, Weather by CustomWeather, © 2014

Note: Actual official high and low records may vary slightly from our data, if they occured in-between our weather recording intervals... More about our weather records

Advertising

Historic Weather Conditions — Data for Previous 24 hours

 ConditionsComfort  
Time TempWeatherWind HumidityBarometerVisibility
12:00 PM
Apr 18
66 °FPartly sunny.10 mph73%30.01 "Hg6 mi
11:00 AM64 °FOvercast.9 mph83%30.01 "Hg6 mi
10:00 AM63 °FOvercast.9 mph83%30.01 "Hg6 mi
9:00 AM63 °FOvercast.9 mph88%30.01 "Hg5 mi
8:00 AM63 °FLow clouds.10 mph88%29.98 "Hg4 mi
7:00 AM63 °FPassing clouds.8 mph88%29.98 "Hg4 mi
6:00 AM63 °FPassing clouds.5 mph88%29.98 "Hg4 mi
5:00 AM63 °FPassing clouds.9 mph88%29.98 "Hg4 mi
4:00 AM63 °FPassing clouds.5 mph88%30.01 "Hg4 mi
3:00 AM61 °FPassing clouds.2 mph88%30.01 "Hg5 mi
2:00 AM61 °FClear.1 mph88%30.01 "Hg5 mi
1:00 AM61 °FClear.6 mph88%30.01 "Hg6 mi
12:00 AM63 °FClear.3 mph77%30.01 "Hg10 mi
11:00 PM
Apr 17
63 °FClear.6 mph83%30.01 "Hg10 mi
10:00 PM64 °FSunny.7 mph78%29.98 "Hg10 mi
9:00 PM64 °FSunny.7 mph78%29.98 "Hg10 mi
8:00 PM68 °FSunny.10 mph69%29.98 "Hg10 mi
7:00 PM70 °FSunny.9 mph57%29.98 "Hg10 mi
6:00 PM70 °FPassing clouds.12 mph64%29.98 "HgN/A
5:00 PM72 °FSunny.9 mph65%29.98 "Hg10 mi
4:00 PM72 °FPassing clouds.9 mph57%29.98 "HgN/A
3:00 PM75 °FPassing clouds.6 mph50%30.01 "HgN/A
2:00 PM75 °FPassing clouds.6 mph54%30.01 "HgN/A
1:00 PM75 °FSunny.2 mph50%30.04 "Hg10 mi
Weather by CustomWeather, © 2014

See weather overview